DateTimeUTC,F1_A11,F1_S11,BsB_S11,BsG_S11,BsR_S11,BbsB_S11,BbsG_S11,BbsR_S11,BaB_A11,BaG_A11,BaR_A11,Tu_S11,T_S11,Uu_S11,U_S11,P_S11,T1_A11
2021-02-13T17:00:00Z,00000200,21000000,,,,,,,0000.20,0000.12,0000.28,16.6,23.1,,00.0,0655.7,31.0
2021-02-13T17:01:00Z,00000200,21000000,,,,,,,0000.07,-000.28,-000.12,16.6,23.1,,00.0,0655.7,31.0
2021-02-13T17:02:00Z,00000200,21000000,,,,,,,0000.02,0000.40,0000.04,16.6,23.1,,00.0,0655.7,31.0
2021-02-13T17:03:00Z,00000200,61000000,,,,,,,0000.89,0000.33,0000.32,16.6,23.1,,00.0,0655.7,31.0
2021-02-13T17:04:00Z,00000200,41000000,0000.65,0000.61,0000.31,-000.31,0000.02,0000.22,-000.13,-000.04,0000.33,16.6,22.9,00.3,00.2,0656.5,31.0
2021-02-13T17:05:00Z,00000200,01000000,0000.72,0000.20,0000.05,0000.56,-000.01,0000.17,0000.33,0000.30,-000.01,16.7,22.8,00.3,00.2,0656.6,31.0
2021-02-13T17:06:00Z,00000200,01000000,0001.05,0000.16,0000.44,0000.11,-000.03,0000.53,0000.39,0000.69,0000.17,16.7,22.8,00.4,00.3,0656.6,31.0
2021-02-13T17:07:00Z,00000200,01000000,0001.21,0000.24,0000.22,0000.45,0000.11,0000.03,0000.31,0000.13,0000.37,16.8,22.8,00.5,00.3,0656.5,31.0
2021-02-13T17:08:00Z,00000200,01000000,0000.87,0000.19,0000.28,-000.23,-000.03,0000.12,0000.22,0000.29,0000.43,16.8,22.8,00.4,00.3,0656.5,31.0
2021-02-13T17:09:00Z,00000200,01000000,0000.95,0000.27,0000.28,0000.01,-000.05,0000.02,0000.26,-000.08,-000.37,16.8,22.8,00.5,00.3,0656.5,31.0
2021-02-13T17:10:00Z,00000200,01000000,0001.12,0000.31,0000.28,0000.10,0000.01,0000.23,0000.15,0000.27,0000.41,16.8,22.8,00.5,00.3,0656.5,31.0
2021-02-13T17:11:00Z,00000200,01000000,0001.52,0000.42,0000.60,0000.58,-000.05,0000.12,0000.17,0000.36,0000.30,16.8,22.8,00.5,00.4,0656.5,31.0
2021-02-13T17:12:00Z,00000200,01000000,0001.19,0000.53,0000.13,0000.44,-000.08,-000.07,0000.40,0000.23,0000.11,16.8,22.8,00.5,00.4,0656.5,31.0
2021-02-13T17:13:00Z,00000200,01000000,0001.16,0000.32,0000.22,0000.17,0000.03,0000.15,0000.30,0000.09,-000.24,16.8,22.8,00.7,00.5,0656.5,31.0
2021-02-13T17:14:00Z,00000200,01000000,0001.27,0000.26,0000.46,0000.55,0000.17,0000.44,0000.29,0000.61,0000.37,16.8,22.8,00.7,00.5,0656.5,31.0
2021-02-13T17:15:00Z,00000200,01000000,0000.26,0000.42,0000.20,0000.54,-000.06,0000.17,0000.50,0000.06,0000.45,16.8,22.8,00.7,00.5,0656.5,31.0
2021-02-13T17:16:00Z,00000200,01000000,0000.09,0000.49,0000.42,-000.17,0000.05,0000.28,0000.00,0000.25,-000.04,16.7,22.8,00.7,00.5,0656.5,31.0
2021-02-13T17:17:00Z,00000200,01000000,0001.40,0000.30,-000.03,-000.54,0000.07,0000.30,0000.37,-000.22,0000.06,16.7,22.8,00.7,00.5,0656.5,31.0
2021-02-13T17:18:00Z,00000200,01000000,0000.53,0000.07,0000.12,0000.38,0000.04,0000.13,0000.41,0000.59,0000.46,16.7,22.8,00.9,00.6,0656.5,31.0
2021-02-13T17:19:00Z,00000200,01000000,0001.20,0000.37,0000.06,-000.21,-000.05,0000.21,-000.08,-000.16,0000.04,16.7,22.7,00.8,00.6,0656.5,31.0
2021-02-13T17:20:00Z,00000200,01000000,0000.89,0000.37,0000.35,-000.42,-000.07,0000.36,0000.33,0000.38,0000.33,16.7,22.7,00.9,00.6,0656.5,31.0
2021-02-13T17:21:00Z,00000200,01000000,0000.47,0000.10,0000.32,0000.14,0000.34,0000.26,0000.42,0000.54,0000.53,16.7,22.7,00.9,00.6,0656.5,31.0
2021-02-13T17:22:00Z,00000200,01000000,0000.42,0000.47,0000.33,0000.36,-000.11,0000.14,0000.28,-000.01,-000.16,16.8,22.8,00.8,00.6,0656.5,31.0
2021-02-13T17:23:00Z,00000200,01000000,0000.42,0000.51,0000.42,-000.25,0000.08,0000.43,-000.02,0000.04,-000.09,16.9,22.8,00.9,00.6,0656.5,31.0
2021-02-13T17:24:00Z,00000200,01000000,0000.65,0000.33,0000.29,0000.51,-000.01,0000.12,0000.08,0000.51,0000.24,16.9,22.8,00.9,00.6,0656.5,31.0
2021-02-13T17:25:00Z,00000200,01000000,0000.22,0000.10,-000.00,0000.29,0000.08,0000.28,0000.54,-000.10,0000.03,16.9,22.8,00.9,00.6,0656.5,31.0
2021-02-13T17:26:00Z,00000200,01000000,0000.61,0000.34,0000.31,-000.28,0000.16,0000.13,-000.10,0000.22,0000.10,16.9,22.8,00.9,00.6,0656.6,31.0
2021-02-13T17:27:00Z,00000200,01000000,0000.46,0000.32,0000.23,-000.22,-000.20,0000.03,0000.08,-000.28,0000.25,16.9,22.8,00.9,00.6,0656.6,31.0
2021-02-13T17:28:00Z,00000200,01000000,0000.31,0000.40,0000.35,0000.29,-000.04,0000.30,-000.01,0000.22,-000.41,16.9,22.8,00.8,00.6,0656.6,31.0
2021-02-13T17:29:00Z,00000200,01000000,0000.73,0000.24,0000.23,0000.67,0000.06,0000.29,-000.19,-000.18,0000.00,16.8,22.8,00.9,00.6,0656.6,31.0
2021-02-13T17:30:00Z,00000200,01000000,0000.46,0000.28,0000.21,-000.05,-000.18,0000.16,0000.31,0000.24,0000.14,16.8,22.8,00.9,00.6,0656.6,31.0
2021-02-13T17:31:00Z,00000200,01000000,0000.09,0000.10,0000.07,0000.17,0000.04,0000.38,0000.00,0000.07,-000.12,16.8,22.8,00.9,00.6,0656.6,31.0
2021-02-13T17:32:00Z,00000200,01000000,0001.04,0000.26,0000.30,0000.63,0000.07,-000.00,0000.28,0000.32,0000.38,16.8,22.8,00.9,00.6,0656.6,31.0
2021-02-13T17:33:00Z,00000200,01000000,0000.49,0000.19,0000.11,0000.13,0000.16,-000.07,0000.01,0000.17,0000.02,16.8,22.8,00.9,00.6,0656.6,31.0
2021-02-13T17:34:00Z,00000200,01000000,0001.04,0000.17,0000.43,0000.05,-000.14,0000.09,0000.27,-000.22,0000.12,16.8,22.8,00.9,00.6,0656.6,31.0
2021-02-13T17:35:00Z,00000200,01000000,0001.10,0000.43,0000.12,-000.06,-000.07,0000.23,0000.24,0000.43,0000.11,16.8,22.8,00.9,00.6,0656.7,31.0
2021-02-13T17:36:00Z,00000200,01000000,0000.66,0000.15,0000.14,-000.10,-000.05,0000.20,0000.24,0000.39,0000.47,16.8,22.8,00.9,00.6,0656.7,31.0
2021-02-13T17:37:00Z,00000200,01000000,0000.59,0000.41,0000.15,0000.15,0000.19,0000.12,-000.03,-000.03,-000.27,16.8,22.8,00.9,00.6,0656.6,31.0
2021-02-13T17:38:00Z,00000200,01000000,0001.37,0000.34,0000.27,-000.18,0000.10,0000.19,0000.35,0000.03,0000.37,16.8,22.8,00.9,00.6,0656.6,31.0
2021-02-13T17:39:00Z,00000200,01000000,0001.31,0000.35,0000.34,0000.12,0000.23,0000.37,0000.08,0000.42,-000.19,16.8,22.8,00.9,00.6,0656.6,31.0
2021-02-13T17:40:00Z,00000200,01000000,0000.61,0000.35,0000.28,0000.32,0000.04,-000.08,0000.11,-000.08,0000.21,16.8,22.8,01.0,00.7,0656.7,31.0
2021-02-13T17:41:00Z,00000200,01000000,0000.86,0000.25,0000.16,0000.27,0000.06,0000.17,0000.11,0000.15,-000.08,16.8,22.8,00.8,00.6,0656.7,31.0
2021-02-13T17:42:00Z,00000200,01000000,0000.35,0000.45,0000.48,0000.11,0000.19,0000.12,0000.18,-000.06,0000.36,16.8,22.8,00.9,00.6,0656.7,31.0
2021-02-13T17:43:00Z,00000200,01000000,0000.97,0000.33,0000.16,0000.10,0000.23,0000.19,-000.02,0000.25,-000.17,16.8,22.8,00.9,00.6,0656.7,31.0
2021-02-13T17:44:00Z,00000200,01000000,0000.41,0000.40,0000.29,-000.00,-000.02,0000.12,0000.11,-000.16,-000.14,16.8,22.8,00.9,00.6,0656.7,31.0
2021-02-13T17:45:00Z,00000200,01000000,0000.53,0000.38,0000.22,0000.24,0000.16,0000.08,0000.38,0000.35,0000.29,16.8,22.8,00.9,00.6,0656.7,31.0
2021-02-13T17:46:00Z,00000200,01000000,0000.87,0000.53,0000.12,0000.17,0000.02,0000.26,0000.28,0000.43,0000.31,16.8,22.8,00.9,00.6,0656.7,31.0
2021-02-13T17:47:00Z,00000200,01000000,0000.93,0000.17,0000.37,-000.35,-000.06,0000.24,0000.14,0000.20,0000.01,16.8,22.8,00.9,00.6,0656.7,31.0
2021-02-13T17:48:00Z,00000200,01000000,0001.06,0000.22,0000.37,-000.28,-000.00,0000.23,-000.26,0000.04,0000.29,16.7,22.7,01.0,00.7,0656.7,31.0
2021-02-13T17:49:00Z,00000200,01000000,0000.67,0000.52,0000.59,0000.30,0000.22,0000.22,0000.58,-000.02,0000.24,16.7,22.8,01.0,00.7,0656.7,31.0
2021-02-13T17:50:00Z,00000200,01000000,0000.55,0000.17,0000.42,0000.06,0000.10,0000.16,0000.49,0000.20,0000.19,16.7,22.7,01.0,00.7,0656.7,31.0
2021-02-13T17:51:00Z,00000200,01000000,0000.46,0000.44,0000.04,0000.03,-000.26,0000.24,0000.32,0000.58,0000.31,16.8,22.7,01.0,00.7,0656.7,31.0
2021-02-13T17:52:00Z,00000200,01000000,0000.20,0000.21,0000.29,0000.44,0000.05,0000.08,-000.16,0000.09,-000.21,16.9,22.7,01.0,00.7,0656.6,31.0
2021-02-13T17:53:00Z,00000200,01000000,0000.54,0000.45,-000.01,-000.35,0000.15,0000.10,0000.54,0000.07,0000.13,16.9,22.8,01.0,00.7,0656.7,31.0
2021-02-13T17:54:00Z,00000200,01000000,0000.10,0000.35,0000.25,-000.18,0000.14,0000.06,-000.08,0000.45,0000.56,16.9,22.8,01.0,00.7,0656.7,31.0
2021-02-13T17:55:00Z,00000200,01000000,0001.01,0000.20,0000.34,0000.51,0000.32,0000.09,0000.04,0000.02,-000.28,17.0,22.8,00.9,00.6,0656.7,31.0
2021-02-13T17:56:00Z,00000200,01000000,0001.02,0000.02,0000.09,0000.31,-000.16,0000.20,-000.14,-000.19,0000.07,16.9,22.8,01.1,00.8,0656.7,31.0
2021-02-13T17:57:00Z,00000200,41000000,,,,,,,-000.11,-000.43,-000.51,16.9,22.9,01.5,01.0,0656.9,31.0
2021-02-13T17:58:00Z,00000200,61000000,,,,,,,0000.13,-000.08,0000.15,16.7,23.0,00.6,00.4,0655.8,31.0
2021-02-13T17:59:00Z,00000200,21000000,,,,,,,-000.06,0000.22,0000.12,16.6,23.1,00.6,00.4,0655.8,31.0
